TimeCST,TemperatureF,Dew PointF,Humidity,Sea Level PressureIn,VisibilityMPH,Wind Direction,Wind SpeedMPH,Gust SpeedMPH,PrecipitationIn,Events,Conditions,WindDirDegrees,DateUTC
12:23 AM,44.1,44.1,100,29.88,9.0,NW,16.1,20.7,0.00,,Overcast,310,2013-11-27 06:23:00
12:46 AM,44.1,43.0,96,29.88,5.0,NW,13.8,23.0,0.00,Rain,Light Rain,320,2013-11-27 06:46:00
12:56 AM,44.1,43.0,96,29.86,5.0,NW,12.7,20.7,0.00,Rain,Light Rain,320,2013-11-27 06:56:00
1:56 AM,44.1,43.0,96,29.87,10.0,NW,13.8,20.7,0.02,Rain,Light Rain,320,2013-11-27 07:56:00
2:56 AM,43.0,42.1,97,29.90,10.0,NNW,13.8,27.6,0.00,,Unknown,330,2013-11-27 08:56:00
3:56 AM,42.1,41.0,96,29.91,10.0,NNW,16.1,23.0,0.00,,Unknown,330,2013-11-27 09:56:00
4:56 AM,39.9,39.9,100,29.95,10.0,NNW,11.5,25.3,N/A,,Unknown,330,2013-11-27 10:56:00
5:56 AM,39.9,36.0,86,29.99,10.0,NNW,12.7,25.3,N/A,,Overcast,340,2013-11-27 11:56:00
6:56 AM,39.0,35.1,86,30.03,9.0,NNW,12.7,20.7,N/A,,Overcast,340,2013-11-27 12:56:00
7:56 AM,39.0,32.0,76,30.06,9.0,NNW,12.7,25.3,N/A,,Mostly Cloudy,340,2013-11-27 13:56:00
8:56 AM,39.9,32.0,73,30.08,10.0,NNW,13.8,26.5,N/A,,Mostly Cloudy,340,2013-11-27 14:56:00
9:56 AM,42.1,30.9,65,30.11,10.0,NW,16.1,23.0,N/A,,Mostly Cloudy,320,2013-11-27 15:56:00
10:56 AM,44.1,33.1,65,30.10,10.0,NW,12.7,21.9,N/A,,Mostly Cloudy,320,2013-11-27 16:56:00
11:56 AM,45.0,30.9,58,30.09,10.0,NNW,13.8,26.5,N/A,,Partly Cloudy,340,2013-11-27 17:56:00
12:56 PM,46.9,30.9,54,30.08,10.0,NNW,15.0,20.7,N/A,,Clear,330,2013-11-27 18:56:00
1:56 PM,46.9,30.9,54,30.10,10.0,NNW,11.5,21.9,N/A,,Clear,340,2013-11-27 19:56:00
2:56 PM,48.0,33.1,56,30.11,10.0,NNW,15.0,24.2,N/A,,Clear,340,2013-11-27 20:56:00
3:56 PM,46.0,30.9,56,30.13,10.0,NNW,10.4,19.6,N/A,,Clear,330,2013-11-27 21:56:00
4:56 PM,42.1,27.0,55,30.17,10.0,NNW,13.8,19.6,N/A,,Clear,340,2013-11-27 22:56:00
5:56 PM,39.0,28.0,65,30.21,10.0,NNW,5.8,-,N/A,,Clear,330,2013-11-27 23:56:00
6:56 PM,37.9,26.1,62,30.25,10.0,NNW,9.2,-,N/A,,Clear,330,2013-11-28 00:56:00
7:56 PM,36.0,25.0,64,30.29,10.0,NNW,8.1,-,N/A,,Clear,340,2013-11-28 01:56:00
8:56 PM,35.1,27.0,72,30.30,10.0,NW,10.4,-,N/A,,Clear,320,2013-11-28 02:56:00
9:56 PM,33.1,24.1,70,30.32,10.0,NNW,8.1,-,N/A,,Clear,340,2013-11-28 03:56:00
10:56 PM,32.0,24.1,73,30.32,10.0,NNW,6.9,-,N/A,,Clear,340,2013-11-28 04:56:00
11:56 PM,30.9,24.1,76,30.33,10.0,NNW,3.5,-,N/A,,Clear,330,2013-11-28 05:56:00